User: anonymous   Login
Location: Unspecified
(0.0000°N, 0.0000°E)
Time: 01:54:38
(UTC+02:00)
Language:

ARIANE DEB (SPELDA) - Orbit

View from above orbital plane
View from above orbital plane
View from above satellite
View from above satellite

Ground track
Ground track

The orbit data is extracted from the following two-line orbital elements,

1 27402U 02015D   16272.51054924  .00000658  00000-0  10293-2 0  9997
2 27402   3.3197 237.5215 7087926  90.7103 343.4543  2.48399241127552
Epoch (UTC): 28 September 2016 12:15:11
Eccentricity: 0.7087926
inclination: 3.3197°
perigee height: 328 km
apogee height: 32976 km
right ascension of ascending node: 237.5215°
argument of perigee: 90.7103°
revolutions per day: 2.48399241
mean anomaly at epoch: 343.4543°
orbit number at epoch: 12755

The dashed part of the orbit path shows where the satellite is in the earth's shadow,  

DLR